Preview of NWS' New Version of Forecast
This preview is not operational and should not be used for support decisions.

Regional Weather Roundup (RWR)

Issued by National Weather Service (NWS)

                            
000
ASUS44 KMEG 240410
RWRTN 
TENNESSEE HOURLY STATE WEATHER ROUNDUP
NATIONAL WEATHER SERVICE MEMPHIS TN
1100 PM CDT THU MAY 23 2019

TNZ002-004-019-021-049-052-054-088>092-240500-
WEST TENNESSEE
  
CITY           SKY/WX    TMP DP  RH WIND       PRES   REMARKS
MEMPHIS INTL   FAIR      78  65  63 S6        30.09S                  
NWS MEMPHIS      N/A     73 N/A N/A MISG        N/A                   
JACKSON        FAIR      70  67  90 CALM      30.12R                  
DYERSBURG      FAIR      75  67  76 S3        30.10S                  
SOMERVILLE     CLEAR     72  68  88 CALM      30.09F                  
COVINGTON      CLEAR     75  66  73 CALM      30.09S                  
UNION CITY     CLEAR     72  70  94 CALM      30.09R                  
BOLIVAR        CLEAR     68  66  94 CALM      30.10S                  
PARIS          CLEAR     72  68  88 CALM      30.11S                  
HUNTINGDON     CLEAR     72  68  88 CALM      30.11S                  
LEXINGTON      CLEAR     68  68 100 CALM      30.11S                  
SELMER         CLEAR     70  64  83 CALM      30.11S                  
SAVANNAH       CLEAR     70  68  94 CALM      30.12R                  
$$

TNZ008-025-027-028-033-062-065-066-240500-
NORTH MIDDLE TENNESSEE
  
CITY           SKY/WX    TMP DP  RH WIND       PRES   REMARKS
NASHVILLE      FAIR      76  62  62 S3        30.15R                  
DICKSON        CLEAR     70  66  88 CALM      30.14S                  
CLARKSVILLE    FAIR      72  66  81 CALM      30.12S                  
LEBANON        CLEAR     70  64  83 CALM      30.13S                  
SMYRNA         FAIR      71  65  81 CALM      30.16R                  
MURFREESBORO   CLOUDY    75  64  69 CALM      30.13S                  
COOKEVILLE     CLEAR     64  63  94 CALM      30.17S FOG              
LIVINGSTON     CLEAR     72  64  78 CALM      30.17F                  
CROSSVILLE     NOT AVBL                                               
ROCKWOOD       CLEAR     72  63  73 W5        30.20F                  
$$

TNZ061-075-076-078-094-096-097-240500-
SOUTH MIDDLE TENNESSEE
  
CITY           SKY/WX    TMP DP  RH WIND       PRES   REMARKS
LAWRENCEBURG   PTCLDY    70  66  88 CALM      30.15S                  
LEWISBURG      CLEAR     66  64  94 CALM      30.14S                  
FAYETTEVILLE   CLEAR     73  64  73 CALM      30.16S                  
TULLAHOMA      CLEAR     68  66  94 CALM      30.17R                  
WINCHESTER     CLEAR     72  66  83 CALM      30.17R                  
MCMINNVILLE    CLEAR     68  68 100 CALM      30.17S                  
COLUMBIA       CLEAR     70  70 100 CALM      30.13S                  
SHELBYVILLE    CLEAR     70  66  88 E5        30.15F                  
$$

TNZ017-018-042-046-047-240500-
NORTHEAST TENNESSEE
  
CITY           SKY/WX    TMP DP  RH WIND       PRES   REMARKS
TRI CITIES     FAIR      70  62  76 CALM      30.19S                  
ELIZABETHTON   FAIR      66  63  88 CALM      30.20S                  
GREENEVILLE    CLEAR     73  64  73 CALM      30.19F                  
$$

TNZ012-013-036-069-073-074-240500-
CENTRAL EAST TENNESSEE
  
CITY           SKY/WX    TMP DP  RH WIND       PRES   REMARKS
KNOXVILLE      FAIR      77  66  68 NW5       30.17R                  
OAK RIDGE      FAIR      76  68  76 CALM      30.18S                  
DOWNTOWN KNOXV CLEAR     70  68  94 CALM      30.17S                  
GATLINBURG     CLEAR     72  64  78 CALM      30.17S                  
MORRISTOWN     PTCLDY    72  66  83 SW6       30.17F                  
JACKSBORO      CLEAR     68  64  88 CALM      30.21F                  
$$

TNZ083-085-099-240500-
SOUTHEAST TENNESSEE
  
CITY           SKY/WX    TMP DP  RH WIND       PRES   REMARKS
CHATTANOOGA    FAIR      75  69  81 CALM      30.16R                  
DAYTON         MOCLDY    72  70  94 CALM      30.16S                  
$$

SKY/WX REPORTED AS FAIR MEANS FEW OR NO CLOUDS BELOW
12 THOUSAND FEET.